FW7296 Weather Reports


time (UTC)temp
C
wind
direction
speed
KPH
gust
KPH
rain 1hr
cm
rain 24hr
cm
rain mn
cm
humidity
%
barometer
mb
20260505074556 10 0 0.0 0.0 0.00 0.00 0.00 91 1013.3
20260505073106 11 0 0.0 0.0 0.00 0.00 0.00 91 1013.2
20260505071553 11 0 0.0 0.0 0.00 0.00 0.00 89 1012.9
20260505070055 12 0 0.0 3.2 0.00 0.00 0.00 88 1012.8
20260505064602 12 148 0.0 4.8 0.00 0.00 0.00 90 1012.7
20260505063056 12 0 0.0 0.0 0.00 0.00 0.00 88 1012.5
20260505061555 12 0 0.0 1.6 0.00 0.00 0.00 85 1012.3
20260505054604 13 221 0.0 3.2 0.00 0.00 0.00 83 1012.1
20260505053110 14 0 0.0 1.6 0.00 0.00 0.00 80 1011.9
20260505051558 15 288 0.0 3.2 0.00 0.00 0.00 79 1011.9
20260505041612 17 145 3.2 11.3 0.00 0.00 0.00 72 1011.1
20260505040057 17 189 4.8 8.0 0.00 0.00 0.00 71 1011.1
20260505034553 18 174 4.8 9.7 0.00 0.00 0.00 69 1010.8
20260505033054 18 0 0.0 9.7 0.00 0.00 0.00 67 1010.6
20260505031605 19 0 1.6 6.4 0.00 0.00 0.00 65 1010.3
20260505030052 20 293 3.2 8.0 0.00 0.00 0.00 63 1010.1
20260505024555 21 259 3.2 14.5 0.00 0.00 0.00 61 1009.9
20260505023102 22 0 1.6 8.0 0.00 0.00 0.00 57 1009.7
20260505021555 23 199 3.2 9.7 0.00 0.00 0.00 55 1009.6
20260505020052 23 237 1.6 9.7 0.00 0.00 0.00 54 1009.4
20260505014551 24 228 3.2 9.7 0.00 0.00 0.00 54 1009.4
20260505013059 24 233 4.8 14.5 0.00 0.00 0.00 53 1009.4
20260505011557 25 240 4.8 17.7 0.00 0.00 0.00 53 1009.4
20260505010056 25 350 3.2 12.9 0.00 0.00 0.00 53 1009.4
20260505004555 26 254 4.8 11.3 0.00 0.00 0.00 51 1009.3
20260505003058 26 228 4.8 9.7 0.00 0.00 0.00 51 1009.3
20260505001555 26 250 3.2 11.3 0.00 0.00 0.00 53 1009.2
20260505000107 26 233 3.2 12.9 0.00 0.00 0.00 50 1009.1
20260504234617 26 4 1.6 9.7 0.00 0.00 0.00 49 1009.2
20260504233057 26 310 4.8 16.1 0.00 0.00 0.00 49 1009.3
20260504231603 26 23 1.6 12.9 0.00 0.00 0.00 48 1009.4
20260504230057 26 347 4.8 9.7 0.00 0.00 0.00 48 1009.6
20260504224556 26 15 4.8 17.7 0.00 0.00 0.00 49 1009.5
20260504223058 26 295 3.2 12.9 0.00 0.00 0.00 50 1009.6
20260504221600 26 313 6.4 16.1 0.00 0.00 0.00 51 1009.8
20260504220058 26 23 6.4 14.5 0.00 0.00 0.00 51 1009.9
20260504214554 26 237 6.4 17.7 0.00 0.00 0.00 49 1010.0
20260504213053 26 333 3.2 16.1 0.00 0.00 0.00 48 1010.0
20260504211557 26 19 4.8 14.5 0.00 0.00 0.00 47 1010.1
20260504210108 26 208 1.6 16.1 0.00 0.00 0.00 46 1010.1
20260504204602 26 2 3.2 11.3 0.00 0.00 0.00 47 1010.3
20260504203054 25 347 3.2 22.5 0.00 0.00 0.00 46 1010.3
20260504201602 25 265 3.2 12.9 0.00 0.00 0.00 53 1010.4
20260504200100 25 335 4.8 9.7 0.00 0.00 0.00 47 1010.5
20260504194608 24 13 4.8 14.5 0.00 0.00 0.00 52 1010.5
20260504193053 24 65 4.8 14.5 0.00 0.00 0.00 51 1010.7
20260504191554 23 8 6.4 11.3 0.00 0.00 0.00 52 1010.8
20260504190117 23 307 4.8 14.5 0.00 0.00 0.00 56 1010.9
20260504184558 23 335 6.4 14.5 0.00 0.00 0.00 54 1011.1
20260504183058 23 27 4.8 14.5 0.00 0.00 0.00 57 1011.0
20260504181603 22 18 1.6 9.7 0.00 0.00 0.00 58 1011.0
20260504180144 22 65 3.2 9.7 0.00 0.00 0.00 61 1011.1
20260504174553 21 83 4.8 9.7 0.00 0.00 0.00 62 1011.2
20260504173111 21 32 1.6 8.0 0.00 0.00 0.00 63 1011.3
20260504171553 21 15 3.2 9.7 0.00 0.00 0.00 65 1011.3
20260504140113 11 218 0.0 4.8 0.00 0.00 0.00 89 1010.4
20260504120114 9 134 0.0 1.6 0.00 0.00 0.00 96 1009.8
20260504081558 12 157 0.0 1.6 0.00 0.00 0.00 91 1009.7